[[{"header":{"parameterUnit":"m.s-1","parameterCategory":1,"la1":30.2991,"la2":30.254,"lo1":-89.0895,"lo2":-89.0444,"dy":0.0017,"dx":0.0017,"nx":28,"ny":28,"refTime":"2024-08-29T21:00:00:Z","depth":0,"parameterNumber":2,"parameterNumberName":"U-component_of_WINDS"},"data":[0,0,0,0,0,0,0,0,0,0,0,0,0,0,0,0,0,0,0,0,0,0,0,0,0,0,0,0,0,0,0,0,0,0,0,0,0,0,0,0,0,0,0,0,0,0,0,0,0,0,0,0,0,0,0,0,0,0,-4.9142,-4.9143,0,-4.9238,-4.9239,-4.924,-4.9114,-4.9109,-4.9105,-4.91,-4.9199,-4.9206,-4.9212,0,0,0,0,0,0,0,0,0,0,0,0,0,-4.8848,-4.8854,-4.9141,-4.9143,-4.9144,-4.9238,-4.9239,-4.924,-4.9115,-4.9109,-4.9103,-4.9098,-4.9197,-4.9205,-4.9213,0,0,0,0,0,0,0,0,0,0,0,0,0,-4.8963,-4.8856,-4.9141,-4.9092,-4.9089,-4.9238,-4.9239,-4.9241,-4.9116,-4.9109,-4.9102,-4.9096,-4.9194,-4.9204,-4.9214,-4.9415,0,0,-4.9246,-4.925,0,0,0,0,0,0,0,0,-4.8957,-4.8974,-4.9098,-4.9096,-4.9093,-4.9157,-4.9172,-4.9299,-4.9117,-4.9106,-4.91,-4.9092,-4.919,-4.9201,-4.9234,-4.942,-4.9424,-4.9247,-4.9253,-4.9257,-4.926,0,0,0,0,0,0,0,-4.8949,-4.8969,-4.918,-4.91,-4.9097,-4.9066,-4.9074,-4.9195,-4.9185,-4.9106,-4.9097,-4.911,-4.9187,-4.9224,-4.9235,-4.9425,-4.9246,-4.9256,-4.9262,-4.9266,-4.9781,-4.9788,0,0,0,0,0,0,-4.8947,-4.8963,-4.9176,-4.9182,-4.9006,-4.9076,-4.9086,-4.9143,-4.9184,-4.9183,-4.9116,-4.9104,-4.921,-4.9223,-4.9238,-4.9476,-4.9257,-4.9267,-4.9273,-4.9773,-4.9782,-4.9791,0,0,0,0,0,0,-4.8941,-4.8967,-4.9173,-4.9071,-4.9094,-4.9089,-4.9154,-4.9149,-4.9185,-4.9191,-4.9189,-4.9155,-4.9205,-4.9224,-4.9372,-4.9477,-4.9272,-4.9281,-4.9765,-4.9776,-4.9787,-4.9953,0,0,0,0,0,0,-4.8933,-4.8966,-4.9042,-4.9073,-4.91,-4.9306,-4.916,-4.9155,-4.9203,-4.9188,-4.9227,-4.9227,-4.9201,-4.9357,-4.9382,-4.9488,-4.9289,-4.9755,-4.977,-4.9783,-4.9938,-4.9968,-4.9995,0,0,0,0,0,-4.8923,-4.9085,-4.9047,-4.9073,-4.9196,-4.9312,-4.9327,-4.9294,-4.9212,-4.9289,-4.9293,-4.9226,-4.9462,-4.9374,-4.9401,-4.9511,-4.9748,-4.9766,-4.9782,-4.9925,-4.9962,-4.9994,0,0,0,0,0,0,-4.9066,-4.9088,-4.9046,-4.9223,-4.9267,-4.929,-4.9386,-4.9334,-4.9402,-4.9385,-4.9341,-4.9351,-4.9509,-4.9525,-4.9426,-4.9707,-4.9592,-4.9615,-4.9691,-4.9727,-4.9754,-4.9747,-4.9298,0,0,0,0,0,-4.9118,-4.9211,-4.9225,-4.938,-4.9404,-4.9392,-4.9441,-4.9412,-4.9455,-4.9473,-4.9487,-4.9532,-4.9616,-4.9672,-4.975,-4.994,-4.9946,-5.0029,-5.0057,-5.008,-5.0101,-5.0202,-5.0239,-4.9846,-4.9846,-4.9845,0,0,-4.9227,-4.925,-4.9312,-4.9409,-4.9439,-4.9536,-4.9408,-4.9516,-4.9587,-4.9489,-4.963,-4.9643,-4.9689,-4.986,-4.9935,-4.9877,-5.0211,-5.0102,-5.012,-5.0128,-5.0223,-5.026,-5.0294,-4.9857,-4.9855,-4.9853,0,0,-4.9474,-4.9502,-4.9633,-4.9667,-4.9714,-4.9705,-4.9737,-4.9769,-4.9774,-4.9914,-4.9843,-4.9927,-5.0073,-5.0109,-5.0147,-5.0409,-5.035,-5.0435,-5.0583,-5.0682,-5.0713,-5.074,-5.0833,-5.0867,-5.0456,-5.0456,-5.0456,0,-4.9603,-4.9746,-4.9707,-4.9821,-4.9865,-4.9782,-4.9915,-4.9949,-5.002,-5.0053,-4.9987,-5.0168,-5.0194,-5.0371,-5.0435,-5.0469,-5.0503,-5.043,-5.0712,-5.0739,-5.0763,-5.0852,-5.0887,-5.0466,-5.0465,-5.0464,-5.0463,0,-4.9902,-5.0002,-5.0103,-5.0174,-5.023,-5.0353,-5.0333,-5.0394,-5.0361,-5.0358,-5.0503,-5.0531,-5.0613,-5.0653,-5.0621,-5.0826,-5.0789,-5.0719,-5.0601,-5.0812,-5.0894,-5.0927,-5.048,-5.0477,-5.0474,-5.0471,0,0,-5.0241,-5.0289,-5.0327,-5.0358,-5.0405,-5.0481,-5.06,-5.068,-5.0734,-5.0786,-5.0884,-5.101,-5.0946,-5.0988,-5.096,-5.1047,-5.1253,-5.0966,-5.0966,-5.1018,-5.148,-5.1532,-5.1572,-5.1214,-5.122,-5.1225,-5.1476,0,-5.0487,-5.0693,-5.0662,-5.086,-5.0952,-5.0875,-5.0978,-5.1018,-5.102,-5.1098,-5.1099,-5.1189,-5.1097,-5.1122,-5.1205,-5.121,-5.1345,-5.1192,-5.1305,-5.1309,-5.1295,-5.1615,-5.167,-5.1906,-5.1508,-5.1513,-5.1517,0,-5.0802,-5.0866,-5.1074,-5.1106,-5.1144,-5.1237,-5.1308,-5.1384,-5.1428,-5.1423,-5.1472,-5.1427,-5.1546,-5.1428,-5.159,-5.1487,-5.1532,-5.1541,-5.1549,-5.1558,-5.1426,-5.1632,-5.198,-5.2015,-5.1568,-5.1564,-5.156,0,-5.1028,-5.1166,-5.1308,-5.1337,-5.1379,-5.1446,-5.1467,-5.1504,-5.1554,-5.1617,-5.1649,-5.1724,-5.1766,-5.1825,-5.1802,-5.1718,-5.197,-5.185,-5.1969,-5.197,-5.2024,-5.2021,-5.2384,-5.2055,-5.2055,-5.2054,-5.2053,0,-5.1306,-5.1436,-5.141,-5.1497,-5.164,-5.1604,-5.1747,-5.1758,-5.1792,-5.188,-5.1817,-5.1901,-5.1866,-5.1948,-5.1931,-5.2069,-5.2088,-5.2087,-5.2081,-5.2092,-5.2092,-5.212,-5.2103,-5.2063,-5.2061,-5.2059,-5.2058,0,-5.1582,-5.1569,-5.1719,-5.1747,-5.1757,-5.1861,-5.1884,-5.1966,-5.1963,-5.2075,-5.21,-5.2095,-5.2188,-5.2171,-5.2274,-5.2263,-5.2435,-5.2409,-5.242,-5.2413,-5.2533,-5.2522,-5.2926,-5.2977,-5.2616,-5.262,-5.2623,0,-5.1759,-5.1858,-5.1896,-5.1951,-5.1976,-5.2065,-5.2116,-5.2084,-5.214,-5.2198,-5.2273,-5.2361,-5.2429,-5.2581,-5.2587,-5.2665,-5.264,-5.2777,-5.2652,-5.266,-5.2642,-5.2636,-5.2645,-5.2801,-5.2805,-5.2808,-5.2811,0,-5.2076,-5.2065,-5.2141,-5.2216,-5.2279,-5.2336,-5.2387,-5.2436,-5.2408,-5.2474,-5.2569,-5.2622,-5.2727,-5.2815,-5.2888,-5.2909,-5.2857,-5.2851,-5.2882,-5.2894,-5.2897,-5.2896,-5.2486,-5.2841,-5.2838,-5.2836,-5.2834,-5.2833,-5.2307,-5.2391,-5.2431,-5.2518,-5.2553,-5.2603,-5.2681,-5.2688,-5.2766,-5.2849,-5.2826,-5.2934,-5.2975,-5.3068,-5.3098,-5.3181,-5.3131,-5.3177,-5.3188,-5.32,-5.3214,-5.2885,-5.3195,-5.3194,-5.3193,-5.3192,-5.3192,0,-5.262,-5.2642,-5.2723,-5.2796,-5.2865,-5.281,-5.2864,-5.2925,-5.302,-5.3063,-5.3132,-5.3241,-5.3326,-5.3339,-5.3419,-5.3484,-5.3462,-5.3506,-5.35,-5.3506,-5.3255,-5.3219,-5.3523,-5.3522,-5.3522,-5.3522,-5.3522,-5.3522,-5.279,-5.2928,-5.2923,-5.3078,-5.3099,-5.3204,-5.324,-5.3285,-5.3319,-5.3444,-5.3514,-5.3522,-5.3554,-5.3636,-5.3712,-5.3713,-5.3745,-5.3799,-5.3792,-5.3557,-5.3524,-5.3492,-5.3458,-5.3807,-5.3807,-5.4035,-5.4038,-5.4039]},{"header":{"parameterUnit":"m.s-1","parameterCategory":1,"la1":30.2991,"la2":30.254,"lo1":-89.0895,"lo2":-89.0444,"dy":0.0017,"dx":0.0017,"nx":28,"ny":28,"refTime":"2024-08-29T21:00:00:Z","depth":0,"parameterNumber":3,"parameterNumberName":"V-component_of_WINDS"},"data":[0,0,0,0,0,0,0,0,0,0,0,0,0,0,0,0,0,0,0,0,0,0,0,0,0,0,0,0,0,0,0,0,0,0,0,0,0,0,0,0,0,0,0,0,0,0,0,0,0,0,0,0,0,0,0,0,0,0,-0.6699,-0.67,0,-0.6853,-0.6855,-0.6856,-0.6985,-0.6986,-0.6988,-0.6989,-0.7141,-0.7144,-0.7147,0,0,0,0,0,0,0,0,0,0,0,0,0,-0.6509,-0.6512,-0.6698,-0.67,-0.6702,-0.6853,-0.6855,-0.6857,-0.6985,-0.6986,-0.6988,-0.699,-0.714,-0.7144,-0.7147,0,0,0,0,0,0,0,0,0,0,0,0,0,-0.662,-0.6513,-0.6698,-0.6784,-0.6794,-0.6852,-0.6855,-0.6857,-0.6984,-0.6986,-0.6988,-0.699,-0.7139,-0.7143,-0.7147,-0.7131,0,0,-0.716,-0.7162,0,0,0,0,0,0,0,0,-0.6614,-0.6627,-0.677,-0.6779,-0.6789,-0.6902,-0.6844,-0.6949,-0.6984,-0.6912,-0.6989,-0.6991,-0.706,-0.707,-0.7095,-0.7138,-0.7145,-0.716,-0.7163,-0.7165,-0.7166,0,0,0,0,0,0,0,-0.6606,-0.6621,-0.6759,-0.6772,-0.6783,-0.6814,-0.6832,-0.6864,-0.6972,-0.6918,-0.6928,-0.6945,-0.7065,-0.709,-0.7099,-0.7147,-0.716,-0.7164,-0.7166,-0.7168,-0.7184,-0.7182,0,0,0,0,0,0,-0.6585,-0.6614,-0.6755,-0.6764,-0.6705,-0.6815,-0.6836,-0.6863,-0.6972,-0.6991,-0.6943,-0.695,-0.7082,-0.7094,-0.7105,-0.7093,-0.7165,-0.7168,-0.7171,-0.7186,-0.7184,-0.7182,0,0,0,0,0,0,-0.6581,-0.6597,-0.6748,-0.6692,-0.6713,-0.6816,-0.6847,-0.6865,-0.6891,-0.6991,-0.701,-0.6949,-0.7084,-0.7099,-0.7124,-0.71,-0.717,-0.7174,-0.7189,-0.7186,-0.7183,-0.7067,0,0,0,0,0,0,-0.6575,-0.6594,-0.659,-0.6691,-0.6716,-0.6766,-0.6845,-0.6867,-0.6898,-0.6909,-0.7002,-0.7019,-0.7087,-0.7117,-0.7128,-0.7107,-0.7177,-0.7191,-0.7187,-0.7184,-0.7074,-0.7061,-0.705,0,0,0,0,0,-0.6568,-0.6551,-0.659,-0.6606,-0.6713,-0.6764,-0.6779,-0.6859,-0.6896,-0.6892,-0.6956,-0.7016,-0.7101,-0.7119,-0.7132,-0.7111,-0.7193,-0.7189,-0.7184,-0.7079,-0.7063,-0.705,0,0,0,0,0,0,-0.6443,-0.6565,-0.661,-0.6625,-0.6683,-0.6786,-0.6783,-0.684,-0.6888,-0.6896,-0.6992,-0.7012,-0.7026,-0.7071,-0.7089,-0.7101,-0.7155,-0.7153,-0.7071,-0.7056,-0.7044,-0.7032,-0.7181,0,0,0,0,0,-0.6417,-0.645,-0.6555,-0.6558,-0.6586,-0.6679,-0.6704,-0.6762,-0.6825,-0.685,-0.6916,-0.6974,-0.7014,-0.7038,-0.708,-0.7082,-0.7103,-0.7074,-0.7062,-0.7051,-0.7048,-0.7051,-0.7039,-0.7167,-0.7167,-0.7167,0,0,-0.6364,-0.6436,-0.645,-0.6535,-0.6587,-0.6617,-0.6699,-0.6727,-0.675,-0.6854,-0.6882,-0.6932,-0.7003,-0.7016,-0.7025,-0.7054,-0.7018,-0.7046,-0.7036,-0.7039,-0.7045,-0.7033,-0.7022,-0.7164,-0.7164,-0.7165,0,0,-0.6283,-0.6341,-0.635,-0.6401,-0.6479,-0.6542,-0.6544,-0.6638,-0.6676,-0.6706,-0.6784,-0.6812,-0.6879,-0.6926,-0.6959,-0.6896,-0.6952,-0.6907,-0.6843,-0.6845,-0.6835,-0.6826,-0.6802,-0.6793,-0.6903,-0.6903,-0.6903,0,-0.6207,-0.6258,-0.6347,-0.6371,-0.6405,-0.6503,-0.6511,-0.6556,-0.6643,-0.6663,-0.6696,-0.6782,-0.6837,-0.6862,-0.6846,-0.687,-0.6874,-0.6896,-0.6829,-0.6822,-0.6815,-0.6793,-0.6784,-0.6897,-0.6897,-0.6898,-0.6899,0,-0.6159,-0.6193,-0.6191,-0.6274,-0.6309,-0.6324,-0.6415,-0.6438,-0.6492,-0.6551,-0.6579,-0.6649,-0.6706,-0.6717,-0.6769,-0.6749,-0.6764,-0.6812,-0.6867,-0.6795,-0.6776,-0.6769,-0.6888,-0.689,-0.6892,-0.6893,0,0,-0.6003,-0.6137,-0.6134,-0.6173,-0.6267,-0.6294,-0.6314,-0.6372,-0.639,-0.6447,-0.6465,-0.652,-0.6564,-0.6601,-0.666,-0.6662,-0.6606,-0.6709,-0.6712,-0.6686,-0.6586,-0.6549,-0.6538,-0.6645,-0.6643,-0.6642,-0.658,0,-0.5936,-0.5979,-0.606,-0.6077,-0.6108,-0.6201,-0.6219,-0.6277,-0.6332,-0.6365,-0.6426,-0.6463,-0.6519,-0.6542,-0.6548,-0.6611,-0.6587,-0.6617,-0.666,-0.666,-0.6638,-0.6528,-0.6489,-0.6427,-0.6573,-0.6572,-0.6571,0,-0.5863,-0.5917,-0.5937,-0.6029,-0.6045,-0.6059,-0.6119,-0.615,-0.6218,-0.6258,-0.6299,-0.6364,-0.6388,-0.644,-0.6474,-0.6493,-0.6516,-0.6549,-0.6549,-0.6554,-0.661,-0.653,-0.6409,-0.6398,-0.6561,-0.6561,-0.6562,0,-0.5745,-0.5822,-0.5844,-0.5875,-0.5983,-0.599,-0.6035,-0.6106,-0.6135,-0.6187,-0.6207,-0.626,-0.6288,-0.6327,-0.6404,-0.6435,-0.6428,-0.6487,-0.6461,-0.6458,-0.6454,-0.6453,-0.6333,-0.647,-0.647,-0.647,-0.6471,0,-0.5662,-0.567,-0.5793,-0.5806,-0.5817,-0.591,-0.5918,-0.5972,-0.6033,-0.6057,-0.6141,-0.6161,-0.6262,-0.6293,-0.6353,-0.6371,-0.6384,-0.6415,-0.6431,-0.6407,-0.6403,-0.6422,-0.6427,-0.6468,-0.6469,-0.6469,-0.6469,0,-0.5531,-0.5614,-0.5644,-0.5744,-0.577,-0.5774,-0.5859,-0.5874,-0.5935,-0.5964,-0.5976,-0.607,-0.6112,-0.6193,-0.6256,-0.6296,-0.63,-0.6329,-0.6277,-0.6287,-0.6255,-0.6256,-0.6142,-0.6132,-0.6276,-0.6274,-0.6273,0,-0.5471,-0.548,-0.5582,-0.5605,-0.5647,-0.5683,-0.5715,-0.5806,-0.5834,-0.5912,-0.5918,-0.5966,-0.601,-0.6071,-0.6144,-0.6192,-0.6222,-0.6178,-0.6229,-0.6205,-0.6219,-0.6217,-0.6218,-0.6166,-0.6164,-0.6162,-0.6161,0,-0.5356,-0.5397,-0.544,-0.5497,-0.5532,-0.5581,-0.5634,-0.5648,-0.5751,-0.5779,-0.5823,-0.5857,-0.5922,-0.5969,-0.6028,-0.6073,-0.6133,-0.6145,-0.6141,-0.6116,-0.6085,-0.61,-0.6245,-0.6147,-0.6148,-0.6149,-0.615,-0.615,-0.5259,-0.5271,-0.5344,-0.5389,-0.5439,-0.5487,-0.5506,-0.557,-0.5609,-0.5671,-0.5722,-0.5761,-0.5828,-0.5915,-0.5955,-0.5986,-0.6016,-0.601,-0.6009,-0.6006,-0.5995,-0.6082,-0.5998,-0.5998,-0.5999,-0.5999,-0.6,0,-0.5146,-0.5199,-0.5239,-0.5312,-0.5346,-0.5403,-0.5465,-0.5489,-0.5524,-0.5582,-0.5624,-0.5674,-0.5719,-0.5796,-0.5847,-0.5857,-0.5886,-0.5867,-0.5867,-0.5876,-0.5967,-0.5964,-0.5843,-0.5843,-0.5843,-0.5843,-0.5843,-0.5843,-0.5092,-0.5115,-0.5164,-0.5212,-0.5265,-0.5305,-0.5336,-0.5379,-0.5427,-0.5479,-0.5518,-0.5569,-0.5634,-0.5691,-0.5734,-0.5756,-0.577,-0.5742,-0.5771,-0.5855,-0.5869,-0.5883,-0.5881,-0.5745,-0.5745,-0.5678,-0.5677,-0.5677]}]]